owner,sensor,date,latitude,longitude,vertical_datum,sea_water_practical_salinity,qcFlag 
DISL,ioos:station:DISL:BSCA:1,2019-05-01T00:00:00Z,30.3288,-87.8293,2.2,2.9,11111222 
DISL,ioos:station:DISL:BSCA:1,2019-05-01T00:30:00Z,30.3288,-87.8293,2.212,3.11,11111222 
DISL,ioos:station:DISL:BSCA:1,2019-05-01T01:00:00Z,30.3288,-87.8293,2.2,3.1,11111222 
DISL,ioos:station:DISL:BSCA:1,2019-05-01T01:30:00Z,30.3288,-87.8293,2.242,2.95,11111222 
DISL,ioos:station:DISL:BSCA:1,2019-05-01T02:00:00Z,30.3288,-87.8293,2.3,3.0,11111222 
DISL,ioos:station:DISL:BSCA:1,2019-05-01T02:30:00Z,30.3288,-87.8293,2.289,2.92,11111222 
DISL,ioos:station:DISL:BSCA:1,2019-05-01T03:00:00Z,30.3288,-87.8293,2.3,3.0,11111222 
DISL,ioos:station:DISL:BSCA:1,2019-05-01T03:30:00Z,30.3288,-87.8293,2.323,2.94,11111222 
DISL,ioos:station:DISL:BSCA:1,2019-05-01T04:00:00Z,30.3288,-87.8293,2.3,2.9,11111222 
DISL,ioos:station:DISL:BSCA:1,2019-05-01T04:30:00Z,30.3288,-87.8293,2.325,2.93,11111222 
DISL,ioos:station:DISL:BSCA:1,2019-05-01T05:00:00Z,30.3288,-87.8293,2.3,2.9,11111222 
DISL,ioos:station:DISL:BSCA:1,2019-05-01T05:30:00Z,30.3288,-87.8293,2.3,2.9,11111222 
DISL,ioos:station:DISL:BSCA:1,2019-05-01T06:00:00Z,30.3288,-87.8293,2.307,2.95,11111222 
DISL,ioos:station:DISL:BSCA:1,2019-05-01T06:30:00Z,30.3288,-87.8293,2.284,2.98,11111222 
DISL,ioos:station:DISL:BSCA:1,2019-05-01T07:00:00Z,30.3288,-87.8293,2.3,3.0,11111222 
DISL,ioos:station:DISL:BSCA:1,2019-05-01T07:30:00Z,30.3288,-87.8293,2.259,3.05,11111222 
DISL,ioos:station:DISL:BSCA:1,2019-05-01T08:00:00Z,30.3288,-87.8293,2.3,3.1,11111222 
DISL,ioos:station:DISL:BSCA:1,2019-05-01T08:30:00Z,30.3288,-87.8293,2.25,3.08,11111222 
DISL,ioos:station:DISL:BSCA:1,2019-05-01T09:00:00Z,30.3288,-87.8293,2.2,3.1,11111222 
DISL,ioos:station:DISL:BSCA:1,2019-05-01T09:30:00Z,30.3288,-87.8293,2.226,3.05,11111222 
DISL,ioos:station:DISL:BSCA:1,2019-05-01T10:00:00Z,30.3288,-87.8293,2.2,3.0,11111222 
DISL,ioos:station:DISL:BSCA:1,2019-05-01T10:30:00Z,30.3288,-87.8293,2.203,3.05,11111222 
DISL,ioos:station:DISL:BSCA:1,2019-05-01T11:00:00Z,30.3288,-87.8293,2.2,3.0,11111222 
DISL,ioos:station:DISL:BSCA:1,2019-05-01T11:30:00Z,30.3288,-87.8293,2.193,3.05,11111222 
DISL,ioos:station:DISL:BSCA:1,2019-05-01T12:00:00Z,30.3288,-87.8293,2.2,3.1,11111222 
DISL,ioos:station:DISL:BSCA:1,2019-05-01T12:30:00Z,30.3288,-87.8293,2.198,3.55,11111222 
DISL,ioos:station:DISL:BSCA:1,2019-05-01T13:00:00Z,30.3288,-87.8293,2.2,3.6,11111222 
DISL,ioos:station:DISL:BSCA:1,2019-05-01T13:30:00Z,30.3288,-87.8293,2.209,3.63,11111222 
DISL,ioos:station:DISL:BSCA:1,2019-05-01T14:00:00Z,30.3288,-87.8293,2.2,3.6,11111222 
DISL,ioos:station:DISL:BSCA:1,2019-05-01T14:30:00Z,30.3288,-87.8293,2.233,3.54,11111222 
DISL,ioos:station:DISL:BSCA:1,2019-05-01T15:00:00Z,30.3288,-87.8293,2.3,3.6,11111222 
DISL,ioos:station:DISL:BSCA:1,2019-05-01T15:30:00Z,30.3288,-87.8293,2.26,3.49,11111222 
DISL,ioos:station:DISL:BSCA:1,2019-05-01T16:00:00Z,30.3288,-87.8293,2.3,3.7,11111222 
DISL,ioos:station:DISL:BSCA:1,2019-05-01T16:30:00Z,30.3288,-87.8293,2.281,4.05,11111222 
DISL,ioos:station:DISL:BSCA:1,2019-05-01T17:00:00Z,30.3288,-87.8293,2.3,4.1,11111222 
DISL,ioos:station:DISL:BSCA:1,2019-05-01T17:30:00Z,30.3288,-87.8293,2.263,4.29,11111222 
DISL,ioos:station:DISL:BSCA:1,2019-05-01T18:00:00Z,30.3288,-87.8293,2.3,4.2,11111222 
DISL,ioos:station:DISL:BSCA:1,2019-05-01T18:30:00Z,30.3288,-87.8293,2.247,3.89,11111222 
DISL,ioos:station:DISL:BSCA:1,2019-05-01T19:00:00Z,30.3288,-87.8293,2.2,3.8,11111222 
DISL,ioos:station:DISL:BSCA:1,2019-05-01T19:30:00Z,30.3288,-87.8293,2.224,3.65,11111222 
DISL,ioos:station:DISL:BSCA:1,2019-05-01T20:00:00Z,30.3288,-87.8293,2.2,3.6,11111222 
DISL,ioos:station:DISL:BSCA:1,2019-05-01T20:30:00Z,30.3288,-87.8293,2.202,3.64,11111222 
DISL,ioos:station:DISL:BSCA:1,2019-05-01T21:00:00Z,30.3288,-87.8293,2.2,3.6,11111222 
DISL,ioos:station:DISL:BSCA:1,2019-05-01T21:30:00Z,30.3288,-87.8293,2.181,3.56,11111222 
DISL,ioos:station:DISL:BSCA:1,2019-05-01T22:00:00Z,30.3288,-87.8293,2.2,3.6,11111222 
DISL,ioos:station:DISL:BSCA:1,2019-05-01T22:30:00Z,30.3288,-87.8293,2.171,3.59,11111222 
DISL,ioos:station:DISL:BSCA:1,2019-05-01T23:00:00Z,30.3288,-87.8293,2.2,3.6,11111222 
DISL,ioos:station:DISL:BSCA:1,2019-05-01T23:30:00Z,30.3288,-87.8293,2.194,3.61,11111222 
DISL,ioos:station:DISL:BSCA:1,2019-05-02T00:00:00Z,30.3288,-87.8293,2.2,3.6,11111222 
DISL,ioos:station:DISL:BSCA:1,2019-05-02T00:30:00Z,30.3288,-87.8293,2.204,3.56,11111222 
DISL,ioos:station:DISL:BSCA:1,2019-05-02T01:00:00Z,30.3288,-87.8293,2.2,3.5,11111222 
DISL,ioos:station:DISL:BSCA:1,2019-05-02T01:30:00Z,30.3288,-87.8293,2.248,3.48,11111222 
DISL,ioos:station:DISL:BSCA:1,2019-05-02T02:00:00Z,30.3288,-87.8293,2.2,3.4,11111222 
DISL,ioos:station:DISL:BSCA:1,2019-05-02T02:30:00Z,30.3288,-87.8293,2.247,3.37,11111222 
DISL,ioos:station:DISL:BSCA:1,2019-05-02T03:00:00Z,30.3288,-87.8293,2.3,3.4,11111222 
DISL,ioos:station:DISL:BSCA:1,2019-05-02T03:30:00Z,30.3288,-87.8293,2.269,3.47,11111222 
DISL,ioos:station:DISL:BSCA:1,2019-05-02T04:00:00Z,30.3288,-87.8293,2.3,3.5,11111222 
DISL,ioos:station:DISL:BSCA:1,2019-05-02T04:30:00Z,30.3288,-87.8293,2.313,3.56,11111222 
DISL,ioos:station:DISL:BSCA:1,2019-05-02T05:00:00Z,30.3288,-87.8293,2.3,3.6,11111222 
DISL,ioos:station:DISL:BSCA:1,2019-05-02T05:30:00Z,30.3288,-87.8293,2.338,3.57,11111222 
DISL,ioos:station:DISL:BSCA:1,2019-05-02T06:00:00Z,30.3288,-87.8293,2.3,3.4,11111222 
DISL,ioos:station:DISL:BSCA:1,2019-05-02T06:30:00Z,30.3288,-87.8293,2.322,3.61,11111222 
DISL,ioos:station:DISL:BSCA:1,2019-05-02T07:00:00Z,30.3288,-87.8293,2.3,3.6,11111222 
DISL,ioos:station:DISL:BSCA:1,2019-05-02T07:30:00Z,30.3288,-87.8293,2.283,3.55,11111222 
DISL,ioos:station:DISL:BSCA:1,2019-05-02T08:00:00Z,30.3288,-87.8293,2.3,3.4,11111222 
DISL,ioos:station:DISL:BSCA:1,2019-05-02T08:30:00Z,30.3288,-87.8293,2.253,3.73,11111222 
DISL,ioos:station:DISL:BSCA:1,2019-05-02T09:00:00Z,30.3288,-87.8293,2.2,3.8,11111222 
DISL,ioos:station:DISL:BSCA:1,2019-05-02T09:30:00Z,30.3288,-87.8293,2.233,4.07,11111222 
DISL,ioos:station:DISL:BSCA:1,2019-05-02T10:00:00Z,30.3288,-87.8293,2.2,3.8,11111222 
DISL,ioos:station:DISL:BSCA:1,2019-05-02T10:30:00Z,30.3288,-87.8293,2.215,3.73,11111222 
DISL,ioos:station:DISL:BSCA:1,2019-05-02T11:00:00Z,30.3288,-87.8293,2.2,3.8,11111222 
DISL,ioos:station:DISL:BSCA:1,2019-05-02T11:30:00Z,30.3288,-87.8293,2.207,4.12,11111222 
DISL,ioos:station:DISL:BSCA:1,2019-05-02T12:00:00Z,30.3288,-87.8293,2.2,4.2,11111222 
DISL,ioos:station:DISL:BSCA:1,2019-05-02T12:30:00Z,30.3288,-87.8293,2.236,4.65,11111222 
DISL,ioos:station:DISL:BSCA:1,2019-05-02T13:00:00Z,30.3288,-87.8293,2.2,4.9,11111222 
DISL,ioos:station:DISL:BSCA:1,2019-05-02T13:30:00Z,30.3288,-87.8293,2.26,4.63,11111222 
DISL,ioos:station:DISL:BSCA:1,2019-05-02T14:00:00Z,30.3288,-87.8293,2.3,4.5,11111222 
DISL,ioos:station:DISL:BSCA:1,2019-05-02T14:30:00Z,30.3288,-87.8293,2.28,3.8,11111222 
DISL,ioos:station:DISL:BSCA:1,2019-05-02T15:00:00Z,30.3288,-87.8293,2.3,3.4,11111222 
DISL,ioos:station:DISL:BSCA:1,2019-05-02T15:30:00Z,30.3288,-87.8293,2.285,3.62,11111222 
DISL,ioos:station:DISL:BSCA:1,2019-05-02T16:00:00Z,30.3288,-87.8293,2.3,4.1,11111222 
DISL,ioos:station:DISL:BSCA:1,2019-05-02T16:30:00Z,30.3288,-87.8293,2.307,3.68,11111222 
DISL,ioos:station:DISL:BSCA:1,2019-05-02T17:00:00Z,30.3288,-87.8293,2.3,3.8,11111222 
DISL,ioos:station:DISL:BSCA:1,2019-05-02T17:30:00Z,30.3288,-87.8293,2.323,4.14,11111222 
DISL,ioos:station:DISL:BSCA:1,2019-05-02T18:00:00Z,30.3288,-87.8293,2.3,4.2,11111222 
DISL,ioos:station:DISL:BSCA:1,2019-05-02T18:30:00Z,30.3288,-87.8293,2.317,4.2,11111222 
DISL,ioos:station:DISL:BSCA:1,2019-05-02T19:00:00Z,30.3288,-87.8293,2.3,4.3,11111222 
DISL,ioos:station:DISL:BSCA:1,2019-05-02T19:30:00Z,30.3288,-87.8293,2.268,3.44,11111222 
DISL,ioos:station:DISL:BSCA:1,2019-05-02T20:00:00Z,30.3288,-87.8293,2.2,3.6,11111222 
DISL,ioos:station:DISL:BSCA:1,2019-05-02T20:30:00Z,30.3288,-87.8293,2.201,3.67,11111222 
DISL,ioos:station:DISL:BSCA:1,2019-05-02T21:00:00Z,30.3288,-87.8293,2.2,3.6,11111222 
DISL,ioos:station:DISL:BSCA:1,2019-05-02T21:30:00Z,30.3288,-87.8293,2.144,3.49,11111222 
DISL,ioos:station:DISL:BSCA:1,2019-05-02T22:00:00Z,30.3288,-87.8293,2.1,3.3,11111222 
DISL,ioos:station:DISL:BSCA:1,2019-05-02T22:30:00Z,30.3288,-87.8293,2.1,3.03,11111222 
DISL,ioos:station:DISL:BSCA:1,2019-05-02T23:00:00Z,30.3288,-87.8293,2.1,3.3,11111222 
DISL,ioos:station:DISL:BSCA:1,2019-05-02T23:30:00Z,30.3288,-87.8293,2.116,3.05,11111222 
DISL,ioos:station:DISL:BSCA:1,2019-05-03T00:00:00Z,30.3288,-87.8293,2.1,2.9,11111222 
DISL,ioos:station:DISL:BSCA:1,2019-05-03T00:30:00Z,30.3288,-87.8293,2.184,3.52,11111222 
DISL,ioos:station:DISL:BSCA:1,2019-05-03T01:00:00Z,30.3288,-87.8293,2.2,3.3,11111222 
DISL,ioos:station:DISL:BSCA:1,2019-05-03T01:30:00Z,30.3288,-87.8293,2.222,3.55,11111222 
DISL,ioos:station:DISL:BSCA:1,2019-05-03T02:00:00Z,30.3288,-87.8293,2.2,3.5,11111222 
DISL,ioos:station:DISL:BSCA:1,2019-05-03T02:30:00Z,30.3288,-87.8293,2.217,3.33,11111222 
DISL,ioos:station:DISL:BSCA:1,2019-05-03T03:00:00Z,30.3288,-87.8293,2.2,2.9,11111222 
DISL,ioos:station:DISL:BSCA:1,2019-05-03T03:30:00Z,30.3288,-87.8293,2.207,2.87,11111222 
DISL,ioos:station:DISL:BSCA:1,2019-05-03T04:00:00Z,30.3288,-87.8293,2.2,2.8,11111222 
DISL,ioos:station:DISL:BSCA:1,2019-05-03T04:30:00Z,30.3288,-87.8293,2.279,3.07,11111222 
DISL,ioos:station:DISL:BSCA:1,2019-05-03T05:00:00Z,30.3288,-87.8293,2.3,3.2,11111222 
DISL,ioos:station:DISL:BSCA:1,2019-05-03T05:30:00Z,30.3288,-87.8293,2.311,3.79,11111222 
DISL,ioos:station:DISL:BSCA:1,2019-05-03T06:00:00Z,30.3288,-87.8293,2.3,4.7,11111222 
DISL,ioos:station:DISL:BSCA:1,2019-05-03T06:30:00Z,30.3288,-87.8293,2.293,3.89,11111222 
DISL,ioos:station:DISL:BSCA:1,2019-05-03T07:00:00Z,30.3288,-87.8293,2.3,3.7,11111222 
DISL,ioos:station:DISL:BSCA:1,2019-05-03T07:30:00Z,30.3288,-87.8293,2.263,3.61,11111222 
DISL,ioos:station:DISL:BSCA:1,2019-05-03T08:00:00Z,30.3288,-87.8293,2.3,3.6,11111222 
DISL,ioos:station:DISL:BSCA:1,2019-05-03T08:30:00Z,30.3288,-87.8293,2.255,3.52,11111222 
DISL,ioos:station:DISL:BSCA:1,2019-05-03T09:00:00Z,30.3288,-87.8293,2.3,3.6,11111222 
DISL,ioos:station:DISL:BSCA:1,2019-05-03T09:30:00Z,30.3288,-87.8293,2.261,3.67,11111222 
DISL,ioos:station:DISL:BSCA:1,2019-05-03T10:00:00Z,30.3288,-87.8293,2.3,4.0,11111222 
DISL,ioos:station:DISL:BSCA:1,2019-05-03T10:30:00Z,30.3288,-87.8293,2.267,3.69,11111222 
DISL,ioos:station:DISL:BSCA:1,2019-05-03T11:00:00Z,30.3288,-87.8293,2.3,4.2,11111222 
DISL,ioos:station:DISL:BSCA:1,2019-05-03T11:30:00Z,30.3288,-87.8293,2.275,3.93,11111222 
DISL,ioos:station:DISL:BSCA:1,2019-05-03T12:00:00Z,30.3288,-87.8293,2.3,4.0,11111222 
DISL,ioos:station:DISL:BSCA:1,2019-05-03T12:30:00Z,30.3288,-87.8293,2.294,4.19,11111222 
DISL,ioos:station:DISL:BSCA:1,2019-05-03T13:00:00Z,30.3288,-87.8293,2.3,4.2,11111222 
DISL,ioos:station:DISL:BSCA:1,2019-05-03T13:30:00Z,30.3288,-87.8293,2.326,4.28,11111222 
DISL,ioos:station:DISL:BSCA:1,2019-05-03T14:00:00Z,30.3288,-87.8293,2.4,4.7,11111222 
DISL,ioos:station:DISL:BSCA:1,2019-05-03T14:30:00Z,30.3288,-87.8293,2.356,4.68,11111222 
DISL,ioos:station:DISL:BSCA:1,2019-05-03T15:00:00Z,30.3288,-87.8293,2.4,4.7,11111222 
DISL,ioos:station:DISL:BSCA:1,2019-05-03T15:30:00Z,30.3288,-87.8293,2.38,4.71,11111222 
DISL,ioos:station:DISL:BSCA:1,2019-05-03T16:00:00Z,30.3288,-87.8293,2.4,4.7,11111222 
DISL,ioos:station:DISL:BSCA:1,2019-05-03T16:30:00Z,30.3288,-87.8293,2.364,4.71,11111222 
DISL,ioos:station:DISL:BSCA:1,2019-05-03T17:00:00Z,30.3288,-87.8293,2.4,4.7,11111222 
DISL,ioos:station:DISL:BSCA:1,2019-05-03T17:30:00Z,30.3288,-87.8293,2.347,4.45,11111222 
DISL,ioos:station:DISL:BSCA:1,2019-05-03T18:00:00Z,30.3288,-87.8293,2.3,4.0,11111222 
DISL,ioos:station:DISL:BSCA:1,2019-05-03T18:30:00Z,30.3288,-87.8293,2.325,3.9,11111222 
DISL,ioos:station:DISL:BSCA:1,2019-05-03T19:00:00Z,30.3288,-87.8293,2.3,3.7,11111222 
DISL,ioos:station:DISL:BSCA:1,2019-05-03T19:30:00Z,30.3288,-87.8293,2.279,3.64,11111222 
DISL,ioos:station:DISL:BSCA:1,2019-05-03T20:00:00Z,30.3288,-87.8293,2.3,3.8,11111222 
DISL,ioos:station:DISL:BSCA:1,2019-05-03T20:30:00Z,30.3288,-87.8293,2.225,3.74,11111222 
DISL,ioos:station:DISL:BSCA:1,2019-05-03T21:00:00Z,30.3288,-87.8293,2.2,2.9,11111222 
DISL,ioos:station:DISL:BSCA:1,2019-05-03T21:30:00Z,30.3288,-87.8293,2.172,2.64,11111222 
DISL,ioos:station:DISL:BSCA:1,2019-05-03T22:00:00Z,30.3288,-87.8293,2.2,2.6,11111222 
DISL,ioos:station:DISL:BSCA:1,2019-05-03T22:30:00Z,30.3288,-87.8293,2.149,2.63,11111222 
DISL,ioos:station:DISL:BSCA:1,2019-05-03T23:00:00Z,30.3288,-87.8293,2.2,2.6,11111222 
DISL,ioos:station:DISL:BSCA:1,2019-05-03T23:30:00Z,30.3288,-87.8293,2.144,2.58,11111222 
DISL,ioos:station:DISL:BSCA:1,2019-05-04T00:00:00Z,30.3288,-87.8293,2.1,2.5,11111222 
DISL,ioos:station:DISL:BSCA:1,2019-05-04T00:30:00Z,30.3288,-87.8293,2.118,2.43,11111222 
DISL,ioos:station:DISL:BSCA:1,2019-05-04T01:00:00Z,30.3288,-87.8293,2.1,2.4,11111222 
DISL,ioos:station:DISL:BSCA:1,2019-05-04T01:30:00Z,30.3288,-87.8293,2.108,2.42,11111222 
DISL,ioos:station:DISL:BSCA:1,2019-05-04T02:00:00Z,30.3288,-87.8293,2.1,2.5,11111222 
DISL,ioos:station:DISL:BSCA:1,2019-05-04T02:30:00Z,30.3288,-87.8293,2.136,2.44,11111222 
DISL,ioos:station:DISL:BSCA:1,2019-05-04T03:00:00Z,30.3288,-87.8293,2.2,2.4,11111222 
DISL,ioos:station:DISL:BSCA:1,2019-05-04T03:30:00Z,30.3288,-87.8293,2.163,2.42,11111222 
DISL,ioos:station:DISL:BSCA:1,2019-05-04T04:00:00Z,30.3288,-87.8293,2.2,2.4,11111222 
DISL,ioos:station:DISL:BSCA:1,2019-05-04T04:30:00Z,30.3288,-87.8293,2.215,2.38,11111222 
DISL,ioos:station:DISL:BSCA:1,2019-05-04T05:00:00Z,30.3288,-87.8293,2.2,2.3,11111222 
DISL,ioos:station:DISL:BSCA:1,2019-05-04T05:30:00Z,30.3288,-87.8293,2.224,2.33,11111222 
DISL,ioos:station:DISL:BSCA:1,2019-05-04T06:00:00Z,30.3288,-87.8293,2.2,2.4,11111222 
DISL,ioos:station:DISL:BSCA:1,2019-05-04T06:30:00Z,30.3288,-87.8293,2.263,2.39,11111222 
DISL,ioos:station:DISL:BSCA:1,2019-05-04T07:00:00Z,30.3288,-87.8293,2.3,2.4,11111222 
DISL,ioos:station:DISL:BSCA:1,2019-05-04T07:30:00Z,30.3288,-87.8293,2.312,2.37,11111222 
DISL,ioos:station:DISL:BSCA:1,2019-05-04T08:00:00Z,30.3288,-87.8293,2.3,2.4,11111222 
DISL,ioos:station:DISL:BSCA:1,2019-05-04T08:30:00Z,30.3288,-87.8293,2.34,2.37,11111222 
DISL,ioos:station:DISL:BSCA:1,2019-05-04T09:00:00Z,30.3288,-87.8293,2.3,2.4,11111222 
DISL,ioos:station:DISL:BSCA:1,2019-05-04T09:30:00Z,30.3288,-87.8293,2.326,2.36,11111222 
DISL,ioos:station:DISL:BSCA:1,2019-05-04T10:00:00Z,30.3288,-87.8293,2.3,2.4,11111222 
DISL,ioos:station:DISL:BSCA:1,2019-05-04T10:30:00Z,30.3288,-87.8293,2.312,2.37,11111222 
DISL,ioos:station:DISL:BSCA:1,2019-05-04T11:00:00Z,30.3288,-87.8293,2.3,2.4,11111222 
DISL,ioos:station:DISL:BSCA:1,2019-05-04T11:30:00Z,30.3288,-87.8293,2.34,2.37,11111222 
DISL,ioos:station:DISL:BSCA:1,2019-05-04T12:00:00Z,30.3288,-87.8293,2.3,2.4,11111222 
DISL,ioos:station:DISL:BSCA:1,2019-05-04T12:30:00Z,30.3288,-87.8293,2.365,2.37,11111222 
DISL,ioos:station:DISL:BSCA:1,2019-05-04T13:00:00Z,30.3288,-87.8293,2.4,2.4,11111222 
DISL,ioos:station:DISL:BSCA:1,2019-05-04T13:30:00Z,30.3288,-87.8293,2.399,2.4,11111222 
DISL,ioos:station:DISL:BSCA:1,2019-05-04T14:00:00Z,30.3288,-87.8293,2.4,2.4,11111222 
DISL,ioos:station:DISL:BSCA:1,2019-05-04T14:30:00Z,30.3288,-87.8293,2.437,2.41,11111222 
DISL,ioos:station:DISL:BSCA:1,2019-05-04T15:00:00Z,30.3288,-87.8293,2.5,2.4,11111222 
DISL,ioos:station:DISL:BSCA:1,2019-05-04T15:30:00Z,30.3288,-87.8293,2.449,2.35,11111222 
DISL,ioos:station:DISL:BSCA:1,2019-05-04T16:00:00Z,30.3288,-87.8293,2.5,2.4,11111222 
DISL,ioos:station:DISL:BSCA:1,2019-05-04T16:30:00Z,30.3288,-87.8293,2.436,2.33,11111222 
DISL,ioos:station:DISL:BSCA:1,2019-05-04T17:00:00Z,30.3288,-87.8293,2.4,2.3,11111222 
DISL,ioos:station:DISL:BSCA:1,2019-05-04T17:30:00Z,30.3288,-87.8293,2.404,2.35,11111222 
DISL,ioos:station:DISL:BSCA:1,2019-05-04T18:00:00Z,30.3288,-87.8293,2.4,2.4,11111222 
DISL,ioos:station:DISL:BSCA:1,2019-05-04T18:30:00Z,30.3288,-87.8293,2.357,2.37,11111222 
DISL,ioos:station:DISL:BSCA:1,2019-05-04T19:00:00Z,30.3288,-87.8293,2.3,2.4,11111222 
DISL,ioos:station:DISL:BSCA:1,2019-05-04T19:30:00Z,30.3288,-87.8293,2.309,2.38,11111222 
DISL,ioos:station:DISL:BSCA:1,2019-05-04T20:00:00Z,30.3288,-87.8293,2.4,2.3,11111222 
DISL,ioos:station:DISL:BSCA:1,2019-05-04T20:30:00Z,30.3288,-87.8293,2.406,2.36,11111222 
DISL,ioos:station:DISL:BSCA:1,2019-05-04T21:00:00Z,30.3288,-87.8293,2.4,2.3,11111222 
DISL,ioos:station:DISL:BSCA:1,2019-05-04T21:30:00Z,30.3288,-87.8293,2.344,2.36,11111222 
DISL,ioos:station:DISL:BSCA:1,2019-05-04T22:00:00Z,30.3288,-87.8293,2.3,2.3,11111222 
DISL,ioos:station:DISL:BSCA:1,2019-05-04T22:30:00Z,30.3288,-87.8293,2.226,2.38,11111222 
DISL,ioos:station:DISL:BSCA:1,2019-05-04T23:00:00Z,30.3288,-87.8293,2.2,2.4,11111222 
DISL,ioos:station:DISL:BSCA:1,2019-05-04T23:30:00Z,30.3288,-87.8293,2.175,2.39,11111222 
DISL,ioos:station:DISL:BSCA:1,2019-05-05T00:00:00Z,30.3288,-87.8293,2.2,2.4,11111222 
DISL,ioos:station:DISL:BSCA:1,2019-05-05T00:30:00Z,30.3288,-87.8293,2.162,2.34,11111222 
DISL,ioos:station:DISL:BSCA:1,2019-05-05T01:00:00Z,30.3288,-87.8293,2.2,2.3,11111222 
DISL,ioos:station:DISL:BSCA:1,2019-05-05T01:30:00Z,30.3288,-87.8293,2.216,2.26,11111222 
DISL,ioos:station:DISL:BSCA:1,2019-05-05T02:00:00Z,30.3288,-87.8293,2.2,2.2,11111222 
DISL,ioos:station:DISL:BSCA:1,2019-05-05T02:30:00Z,30.3288,-87.8293,2.178,2.31,11111222 
DISL,ioos:station:DISL:BSCA:1,2019-05-05T03:00:00Z,30.3288,-87.8293,2.2,2.3,11111222 
DISL,ioos:station:DISL:BSCA:1,2019-05-05T03:30:00Z,30.3288,-87.8293,2.187,2.3,11111222 
DISL,ioos:station:DISL:BSCA:1,2019-05-05T04:00:00Z,30.3288,-87.8293,2.2,2.3,11111222 
DISL,ioos:station:DISL:BSCA:1,2019-05-05T04:30:00Z,30.3288,-87.8293,2.252,2.2,11111222 
DISL,ioos:station:DISL:BSCA:1,2019-05-05T05:00:00Z,30.3288,-87.8293,2.3,2.2,11111222 
DISL,ioos:station:DISL:BSCA:1,2019-05-05T05:30:00Z,30.3288,-87.8293,2.309,2.17,11111222 
DISL,ioos:station:DISL:BSCA:1,2019-05-05T06:00:00Z,30.3288,-87.8293,2.3,2.2,11111222 
DISL,ioos:station:DISL:BSCA:1,2019-05-05T06:30:00Z,30.3288,-87.8293,2.332,2.16,11111222 
DISL,ioos:station:DISL:BSCA:1,2019-05-05T07:00:00Z,30.3288,-87.8293,2.4,2.2,11111222 
DISL,ioos:station:DISL:BSCA:1,2019-05-05T07:30:00Z,30.3288,-87.8293,2.329,2.15,11111222 
DISL,ioos:station:DISL:BSCA:1,2019-05-05T08:00:00Z,30.3288,-87.8293,2.4,2.1,11111222 
DISL,ioos:station:DISL:BSCA:1,2019-05-05T08:30:00Z,30.3288,-87.8293,2.368,2.13,11111222 
DISL,ioos:station:DISL:BSCA:1,2019-05-05T09:00:00Z,30.3288,-87.8293,2.4,2.1,11111222 
DISL,ioos:station:DISL:BSCA:1,2019-05-05T09:30:00Z,30.3288,-87.8293,2.347,2.16,11111222 
DISL,ioos:station:DISL:BSCA:1,2019-05-05T10:00:00Z,30.3288,-87.8293,2.3,2.2,11111222 
DISL,ioos:station:DISL:BSCA:1,2019-05-05T10:30:00Z,30.3288,-87.8293,2.323,2.23,11111222 
DISL,ioos:station:DISL:BSCA:1,2019-05-05T11:00:00Z,30.3288,-87.8293,2.3,2.2,11111222 
DISL,ioos:station:DISL:BSCA:1,2019-05-05T11:30:00Z,30.3288,-87.8293,2.346,2.2,11111222 
DISL,ioos:station:DISL:BSCA:1,2019-05-05T12:00:00Z,30.3288,-87.8293,2.3,2.2,11111222 
DISL,ioos:station:DISL:BSCA:1,2019-05-05T12:30:00Z,30.3288,-87.8293,2.338,2.3,11111222 
DISL,ioos:station:DISL:BSCA:1,2019-05-05T13:00:00Z,30.3288,-87.8293,2.4,2.3,11111222 
DISL,ioos:station:DISL:BSCA:1,2019-05-05T13:30:00Z,30.3288,-87.8293,2.355,2.33,11111222 
DISL,ioos:station:DISL:BSCA:1,2019-05-05T14:00:00Z,30.3288,-87.8293,2.4,2.4,11111222 
DISL,ioos:station:DISL:BSCA:1,2019-05-05T14:30:00Z,30.3288,-87.8293,2.428,2.35,11111222 
DISL,ioos:station:DISL:BSCA:1,2019-05-05T15:00:00Z,30.3288,-87.8293,2.4,2.4,11111222 
DISL,ioos:station:DISL:BSCA:1,2019-05-05T15:30:00Z,30.3288,-87.8293,2.463,2.4,11111222 
DISL,ioos:station:DISL:BSCA:1,2019-05-05T16:00:00Z,30.3288,-87.8293,2.5,2.4,11111222 
DISL,ioos:station:DISL:BSCA:1,2019-05-05T16:30:00Z,30.3288,-87.8293,2.445,2.41,11111222 
DISL,ioos:station:DISL:BSCA:1,2019-05-05T17:00:00Z,30.3288,-87.8293,2.4,2.5,11111222 
DISL,ioos:station:DISL:BSCA:1,2019-05-05T17:30:00Z,30.3288,-87.8293,2.422,2.47,11111222 
DISL,ioos:station:DISL:BSCA:1,2019-05-05T18:00:00Z,30.3288,-87.8293,2.4,2.5,11111222 
DISL,ioos:station:DISL:BSCA:1,2019-05-05T18:30:00Z,30.3288,-87.8293,2.398,2.48,11111222 
DISL,ioos:station:DISL:BSCA:1,2019-05-05T19:00:00Z,30.3288,-87.8293,2.4,2.5,11111222 
DISL,ioos:station:DISL:BSCA:1,2019-05-05T19:30:00Z,30.3288,-87.8293,2.367,2.5,11111222 
DISL,ioos:station:DISL:BSCA:1,2019-05-05T20:00:00Z,30.3288,-87.8293,2.3,2.5,11111222 
DISL,ioos:station:DISL:BSCA:1,2019-05-05T20:30:00Z,30.3288,-87.8293,2.308,2.52,11111222 
DISL,ioos:station:DISL:BSCA:1,2019-05-05T21:00:00Z,30.3288,-87.8293,2.3,2.5,11111222 
DISL,ioos:station:DISL:BSCA:1,2019-05-05T21:30:00Z,30.3288,-87.8293,2.245,2.53,11111222 
DISL,ioos:station:DISL:BSCA:1,2019-05-05T22:00:00Z,30.3288,-87.8293,2.2,2.5,11111222 
DISL,ioos:station:DISL:BSCA:1,2019-05-05T22:30:00Z,30.3288,-87.8293,2.154,2.55,11111222 
DISL,ioos:station:DISL:BSCA:1,2019-05-05T23:00:00Z,30.3288,-87.8293,2.1,2.6,11111222 
DISL,ioos:station:DISL:BSCA:1,2019-05-05T23:30:00Z,30.3288,-87.8293,2.075,2.56,11111222 
DISL,ioos:station:DISL:BSCA:1,2019-05-06T00:00:00Z,30.3288,-87.8293,2.0,2.6,11111222 
DISL,ioos:station:DISL:BSCA:1,2019-05-06T00:30:00Z,30.3288,-87.8293,2.016,2.55,11111222 
DISL,ioos:station:DISL:BSCA:1,2019-05-06T01:00:00Z,30.3288,-87.8293,2.0,2.6,11111222 
DISL,ioos:station:DISL:BSCA:1,2019-05-06T01:30:00Z,30.3288,-87.8293,1.973,2.55,11111222 
DISL,ioos:station:DISL:BSCA:1,2019-05-06T02:00:00Z,30.3288,-87.8293,2.0,2.6,11111222 
DISL,ioos:station:DISL:BSCA:1,2019-05-06T02:30:00Z,30.3288,-87.8293,1.958,2.54,11111222 
DISL,ioos:station:DISL:BSCA:1,2019-05-06T03:00:00Z,30.3288,-87.8293,2.0,2.5,11111222 
DISL,ioos:station:DISL:BSCA:1,2019-05-06T03:30:00Z,30.3288,-87.8293,1.948,2.5,11111222 
DISL,ioos:station:DISL:BSCA:1,2019-05-06T04:00:00Z,30.3288,-87.8293,2.0,2.5,11111222 
DISL,ioos:station:DISL:BSCA:1,2019-05-06T04:30:00Z,30.3288,-87.8293,1.982,2.45,11111222 
DISL,ioos:station:DISL:BSCA:1,2019-05-06T05:00:00Z,30.3288,-87.8293,2.0,2.4,11111222 
DISL,ioos:station:DISL:BSCA:1,2019-05-06T05:30:00Z,30.3288,-87.8293,1.999,2.38,11111222 
DISL,ioos:station:DISL:BSCA:1,2019-05-06T06:00:00Z,30.3288,-87.8293,2.0,2.4,11111222 
DISL,ioos:station:DISL:BSCA:1,2019-05-06T06:30:00Z,30.3288,-87.8293,2.074,2.4,11111222 
DISL,ioos:station:DISL:BSCA:1,2019-05-06T07:00:00Z,30.3288,-87.8293,2.1,2.4,11111222 
DISL,ioos:station:DISL:BSCA:1,2019-05-06T07:30:00Z,30.3288,-87.8293,2.126,2.37,11111222 
DISL,ioos:station:DISL:BSCA:1,2019-05-06T08:00:00Z,30.3288,-87.8293,2.2,2.4,11111222 
DISL,ioos:station:DISL:BSCA:1,2019-05-06T08:30:00Z,30.3288,-87.8293,2.182,2.36,11111222 
DISL,ioos:station:DISL:BSCA:1,2019-05-06T09:00:00Z,30.3288,-87.8293,2.2,2.3,11111222 
DISL,ioos:station:DISL:BSCA:1,2019-05-06T09:30:00Z,30.3288,-87.8293,2.22,2.29,11111222 
DISL,ioos:station:DISL:BSCA:1,2019-05-06T10:00:00Z,30.3288,-87.8293,2.2,2.3,11111222 
DISL,ioos:station:DISL:BSCA:1,2019-05-06T10:30:00Z,30.3288,-87.8293,2.218,2.29,11111222 
DISL,ioos:station:DISL:BSCA:1,2019-05-06T11:00:00Z,30.3288,-87.8293,2.2,2.3,11111222 
DISL,ioos:station:DISL:BSCA:1,2019-05-06T11:30:00Z,30.3288,-87.8293,2.229,2.28,11111222 
DISL,ioos:station:DISL:BSCA:1,2019-05-06T12:00:00Z,30.3288,-87.8293,2.3,2.3,11111222 
DISL,ioos:station:DISL:BSCA:1,2019-05-06T12:30:00Z,30.3288,-87.8293,2.283,2.27,11111222 
DISL,ioos:station:DISL:BSCA:1,2019-05-06T13:00:00Z,30.3288,-87.8293,2.3,2.3,11111222 
DISL,ioos:station:DISL:BSCA:1,2019-05-06T13:30:00Z,30.3288,-87.8293,2.347,2.26,11111222 
DISL,ioos:station:DISL:BSCA:1,2019-05-06T14:00:00Z,30.3288,-87.8293,2.4,2.3,11111222 
DISL,ioos:station:DISL:BSCA:1,2019-05-06T14:30:00Z,30.3288,-87.8293,2.406,2.25,11111222 
DISL,ioos:station:DISL:BSCA:1,2019-05-06T15:00:00Z,30.3288,-87.8293,2.4,2.3,11111222 
DISL,ioos:station:DISL:BSCA:1,2019-05-06T15:30:00Z,30.3288,-87.8293,2.433,2.25,11111222 
DISL,ioos:station:DISL:BSCA:1,2019-05-06T16:00:00Z,30.3288,-87.8293,2.5,2.3,11111222 